Weather History for Houghton Lake, MI

Change the Weather History Date:

Sunday, February 9, 2014

  Actual Average Record
Temperature  
Mean Temperature 11 °F 19 °F  
Max Temperature 20 °F 28 °F 51 °F (1925)
Min Temperature 2 °F 10 °F -28 °F (1951)
Degree Days  
Heating Degree Days 54 46  
Month to date heating degree days 503 421  
Since 1 July heating degree days 5438 5033  
Moisture  
Dew Point 6 °F    
Average Humidity 70    
Maximum Humidity 91    
Minimum Humidity 49    
Precipitation  
Precipitation 0.03 in 0.04 in 0.53 in (2001)
Month to date precipitation 0.26 0.34  
Year to date precipitation 1.87 1.85  
Snow  
Snow 0.20 in 0.50 in 3.00 in (1929)
Month to date snowfall 3.1 4.4  
Since 1 July snowfall 43.4 46.5  
Snow Depth 19.00 in    
Sea Level Pressure  
Sea Level Pressure 30.05 in    
Wind  
Wind Speed 4 mph (WNW)    
Max Wind Speed 14 mph    
Max Gust Speed 18 mph    
Visibility 5 miles    
Events Snow    
T = Trace of Precipitation, MM = Missing Value Source: NWS Daily Summary

Daily Weather History Graph

Daily Weather History Graph

Search for Another Location

Airport:

Trip Planner

Search our weather history database for the weather conditions in past years. The results will help you decide how hot, cold, wet, or windy it might be!

Date:

Astronomy

Feb. 09, 2014 Rise Set
Actual Time 7:46 AM EST 5:59 PM EST
Civil Twilight 7:16 AM EST 6:29 PM EST
Nautical Twilight 6:42 AM EST 7:04 PM EST
Astronomical Twilight 6:08 AM EST 7:37 PM EST
Moon 1:34 PM EST (2/9) 3:55 AM EST (2/9)
Length of Visible Light 11h 13m
Length of Day
10h 12m
Waxing Gibbous, 77% of the Moon is Illuminated
Feb 9
Waxing Gibbous
Feb 14
Full
Feb 22
Last Quarter
Mar 1
New
Mar 8
First Quarter

Hourly Weather History & Observations

Time (EST) Temp. Windchill Dew Point Humidity Pressure Visibility Wind Dir Wind Speed Gust Speed Precip Events Conditions
12:53 AM 3.9 °F -5.3 °F 1.0 °F 88% 30.15 in 8.0 mi South 4.6 mph - N/A   Overcast
1:53 AM 3.9 °F - 1.0 °F 88% 30.13 in 5.0 mi Calm Calm - N/A   Overcast
2:53 AM 3.0 °F -4.4 °F -0.0 °F 87% 30.12 in 10.0 mi ENE 3.5 mph - N/A   Overcast
3:53 AM 5.0 °F - 1.9 °F 87% 30.10 in 4.0 mi Calm Calm - 0.00 in Snow Light Snow
4:53 AM 6.1 °F - 3.0 °F 87% 30.10 in 2.5 mi Calm Calm - 0.00 in Snow Light Snow
5:07 AM 7.0 °F - 3.9 °F 87% 30.03 in 3.0 mi Calm Calm - 0.00 in Snow Light Snow
5:34 AM 8.1 °F 1.4 °F 5.0 °F 87% 30.02 in 1.8 mi East 3.5 mph - 0.00 in Snow Light Snow
5:37 AM 8.1 °F 1.4 °F 5.0 °F 87% 30.02 in 1.2 mi ESE 3.5 mph - 0.00 in Snow Light Snow
5:53 AM 8.1 °F - 5.0 °F 87% 30.09 in 1.0 mi Calm Calm - 0.01 in Snow Light Snow
6:00 AM 8.1 °F - 5.0 °F 87% 30.01 in 1.2 mi Calm Calm - 0.00 in Snow Light Snow
6:16 AM 8.1 °F - 3.9 °F 83% 30.02 in 2.0 mi Calm Calm - 0.00 in Snow Light Snow
6:43 AM 8.1 °F - 5.0 °F 87% 30.01 in 2.0 mi Calm Calm - 0.00 in Snow Light Snow
6:53 AM 8.1 °F - 5.0 °F 87% 30.09 in 2.0 mi Calm Calm - 0.00 in Snow Light Snow
6:58 AM 8.1 °F - 5.0 °F 87% 30.01 in 1.5 mi Calm Calm - 0.00 in Snow Light Snow
7:11 AM 8.1 °F - 5.0 °F 87% 30.01 in 2.0 mi Calm Calm - 0.01 in Snow Light Snow
7:27 AM 8.1 °F - 5.0 °F 87% 30.01 in 3.0 mi Calm Calm - 0.01 in Snow Light Snow
7:43 AM 8.1 °F - 5.0 °F 87% 30.01 in 2.5 mi Calm Calm - 0.01 in Snow Light Snow
7:53 AM 8.1 °F - 5.0 °F 87% 30.09 in 2.0 mi Calm Calm - 0.01 in Snow Light Snow
7:56 AM 8.1 °F - 5.0 °F 87% 30.01 in 1.5 mi Calm Calm - 0.00 in Snow Light Snow
8:04 AM 8.1 °F - 5.0 °F 87% 30.01 in 1.2 mi Calm Calm - 0.00 in Snow Light Snow
8:18 AM 9.0 °F - 5.0 °F 84% 30.01 in 1.0 mi Calm Calm - 0.00 in Snow Light Snow
8:53 AM 9.0 °F - 6.1 °F 88% 30.09 in 1.5 mi Calm Calm - 0.01 in Snow Light Snow
8:57 AM 9.0 °F - 6.1 °F 88% 30.01 in 2.0 mi Calm Calm - 0.00 in Snow Light Snow
9:07 AM 10.0 °F - 7.0 °F 87% 30.01 in 3.0 mi Calm Calm - 0.00 in Snow Light Snow
9:15 AM 10.0 °F - 7.0 °F 87% 30.00 in 2.5 mi Calm Calm - 0.00 in Snow Light Snow
9:23 AM 10.0 °F - 6.1 °F 84% 30.00 in 3.0 mi Calm Calm - 0.00 in Snow Light Snow
9:40 AM 12.9 °F - 9.0 °F 84% 30.00 in 1.8 mi Calm Calm - 0.00 in Snow Light Snow
9:53 AM 12.0 °F - 8.1 °F 84% 30.08 in 2.0 mi Calm Calm - 0.00 in Snow Light Snow
10:03 AM 12.0 °F 5.9 °F 8.1 °F 84% 30.00 in 2.5 mi WSW 3.5 mph - 0.00 in Snow Light Snow
10:09 AM 12.0 °F 5.9 °F 8.1 °F 84% 30.00 in 4.0 mi WSW 3.5 mph - 0.00 in Snow Light Snow
10:31 AM 12.9 °F 6.9 °F 8.1 °F 81% 29.99 in 7.0 mi WSW 3.5 mph - 0.00 in   Scattered Clouds
10:53 AM 14.0 °F 8.2 °F 8.1 °F 77% 30.07 in 8.0 mi West 3.5 mph - 0.00 in   Partly Cloudy
11:53 AM 16.0 °F 10.4 °F 10.0 °F 77% 30.07 in 10.0 mi WSW 3.5 mph - N/A   Clear
12:53 PM 18.0 °F 9.8 °F 10.0 °F 71% 30.04 in 10.0 mi WSW 5.8 mph - N/A   Partly Cloudy
1:53 PM 19.0 °F 6.8 °F 10.0 °F 68% 30.04 in 8.0 mi WNW 11.5 mph - 0.00 in   Overcast
2:00 PM 18.0 °F 5.4 °F 10.9 °F 74% 29.96 in 2.5 mi NW 11.5 mph - 0.00 in Snow Light Snow
2:10 PM 19.0 °F 7.5 °F 10.0 °F 68% 29.96 in 1.8 mi WNW 10.4 mph - 0.00 in Snow Light Snow
2:15 PM 19.0 °F 6.1 °F 9.0 °F 65% 29.96 in 3.0 mi NW 12.7 mph - 0.00 in Snow Light Snow
2:53 PM 19.0 °F 7.5 °F 9.0 °F 65% 30.04 in 5.0 mi NW 10.4 mph - 0.00 in Snow Light Snow
3:10 PM 18.0 °F 6.9 °F 10.0 °F 71% 29.96 in 4.0 mi NNW 9.2 mph - 0.00 in Snow Light Snow
3:18 PM 18.0 °F 7.7 °F 10.0 °F 71% 29.96 in 3.0 mi NW 8.1 mph - 0.00 in Snow Light Snow
3:53 PM 19.0 °F 8.2 °F 6.1 °F 57% 30.04 in 10.0 mi NNW 9.2 mph - 0.00 in   Overcast
4:53 PM 18.0 °F 5.4 °F 3.9 °F 54% 30.06 in 10.0 mi NW 11.5 mph - N/A   Overcast
5:53 PM 17.1 °F 5.8 °F 1.9 °F 52% 30.09 in 10.0 mi NNW 9.2 mph - N/A   Overcast
6:53 PM 15.1 °F 3.3 °F 3.0 °F 59% 30.12 in 10.0 mi NW 9.2 mph - N/A   Overcast
7:53 PM 12.9 °F 3.8 °F 3.9 °F 67% 30.14 in 10.0 mi NW 5.8 mph - N/A   Overcast
8:53 PM 12.9 °F 2.6 °F 5.0 °F 71% 30.16 in 10.0 mi NNW 6.9 mph - N/A   Overcast
9:53 PM 10.0 °F 1.8 °F 5.0 °F 80% 30.17 in 10.0 mi West 4.6 mph - N/A   Overcast
10:36 PM 10.0 °F 3.6 °F 6.1 °F 84% 30.09 in 6.0 mi West 3.5 mph - 0.00 in   Overcast
10:53 PM 9.0 °F - 5.0 °F 84% 30.17 in 7.0 mi Calm Calm - 0.00 in   Overcast
11:53 PM 7.0 °F - 3.9 °F 87% 30.17 in 4.0 mi Calm Calm - 0.00 in Snow Light Snow